Location: Strawberry
(45.6646°N, 111.9596°W)
Time: 07:19:35
(UTC+00:00)

PCSat - Visible Passes

Search period start: 06 December 2022 00:00
Search period end: 16 December 2022 00:00
Orbit: 785 x 793 km, 67.1° (Epoch: 05 December)

Date Brightness Start Highest point End Pass type
(mag) Time Alt. Az. Time Alt. Az. Time Alt. Az.
06 Dec 9.8 01:47:03 10° S 01:52:09 45° ESE 01:52:28 45° ESE visible
06 Dec 11.7 03:30:47 10° WSW 03:33:12 23° W 03:33:12 23° W visible
07 Dec 10.3 01:16:18 10° S 01:21:05 33° ESE 01:22:47 27° ENE visible
07 Dec 10.7 02:59:12 10° WSW 03:03:31 40° WNW 03:03:31 40° WNW visible
08 Dec 10.7 00:45:46 10° SSE 00:50:03 24° ESE 00:53:02 16° ENE visible
08 Dec 10.0 02:27:44 10° SW 02:33:03 56° NW 02:33:46 52° NNW visible
09 Dec 11.1 00:15:31 10° SSE 00:19:04 18° ESE 00:22:36 10° ENE visible
09 Dec 9.7 01:56:24 10° SW 02:01:48 74° NW 02:03:55 38° NNE visible
09 Dec 12.1 03:42:32 10° WNW 03:44:38 16° NW 03:44:38 16° NW visible
10 Dec 9.5 01:25:12 10° SSW 01:30:36 84° ESE 01:34:00 24° NE visible
10 Dec 11.6 03:10:33 10° W 03:14:39 22° NW 03:14:43 22° NW visible
11 Dec 9.6 00:54:07 10° SSW 00:59:27 63° ESE 01:04:01 14° NE visible
11 Dec 11.2 02:38:41 10° W 02:43:14 27° NW 02:44:44 23° NNW visible
12 Dec 10.0 00:23:12 10° S 00:28:20 46° ESE 00:33:29 10° NE visible
12 Dec 11.0 02:06:59 10° WSW 02:11:51 33° NW 02:14:40 21° N visible
13 Dec 10.6 01:35:23 10° WSW 01:40:31 42° NW 01:44:34 16° NNE visible
13 Dec 12.1 03:23:15 10° NW 03:25:17 12° NNW 03:25:17 12° NNW visible
14 Dec 10.2 01:03:55 10° SW 01:09:13 55° NW 01:14:25 11° NNE visible
14 Dec 11.9 02:50:53 10° WNW 02:53:50 15° NNW 02:55:08 14° NNW visible
15 Dec 9.8 00:32:34 10° SW 00:37:59 73° NW 00:43:25 10° NNE visible
15 Dec 11.8 02:18:44 10° WNW 02:22:19 18° NW 02:24:55 13° N visible
